This is the latest recevied weather packets stored in our database for station/object WX5RP. If no packets are shown the sender has not sent any weather packets the latest 10 day(s).
| Time | Temp. | Humidity | Pressure | Rain* | Wind** | Luminosity | Snow |
|---|---|---|---|---|---|---|---|
| 1787925016 | 4.44° C | 79% | 1019.7 hPa | 0 mm | - | 11 W/m² | - |
| 1787924416 | 4.44° C | 79% | 1019.7 hPa | 0 mm | - | 7 W/m² | - |
| 1787923816 | 5° C | 79% | 1019.7 hPa | 0 mm | - | 0 W/m² | - |
| 1787923216 | 5° C | 79% | 1019.7 hPa | 0 mm | - | 0 W/m² | - |
| 1787922616 | 5° C | 78% | 1019 hPa | 0 mm | - | 0 W/m² | - |
| 1787922016 | 6.11° C | 79% | 1019.4 hPa | 0 mm | - | 0 W/m² | - |
| 1787921416 | 6.67° C | 78% | 1019.5 hPa | 0 mm | - | 0 W/m² | - |
| 1787920816 | 6.67° C | 79% | 1020.2 hPa | 0 mm | - | 0 W/m² | - |
| 1787920216 | 5.56° C | 78% | 1019.9 hPa | 0 mm | - | 0 W/m² | - |
| 1787919616 | 6.11° C | 77% | 1019.8 hPa | 0 mm | - | 0 W/m² | - |
| 1787919015 | 6.11° C | 74% | 1019.1 hPa | 0 mm | - | 0 W/m² | - |
| 1787918416 | 7.22° C | 73% | 1019.4 hPa | 0 mm | - | 0 W/m² | - |
| 1787917816 | 6.67° C | 73% | 1019.4 hPa | 0 mm | - | 0 W/m² | - |
| 1787917215 | 6.67° C | 74% | 1019.9 hPa | 0 mm | - | 0 W/m² | - |
| 1787916615 | 6.11° C | 73% | 1019.9 hPa | 0 mm | - | 0 W/m² | - |
| 1787916015 | 7.22° C | 72% | 1019.3 hPa | 0 mm | - | 0 W/m² | - |
| 1787915415 | 7.22° C | 73% | 1019.7 hPa | 0 mm | - | 0 W/m² | - |
| 1787914815 | 7.22° C | 74% | 1019.5 hPa | 0 mm | - | 0 W/m² | - |
| 1787914215 | 6.67° C | 73% | 1019.8 hPa | 0 mm | - | 0 W/m² | - |
| 1787913615 | 7.78° C | 71% | 1019.7 hPa | 0 mm | - | 0 W/m² | - |
| 1787913016 | 7.78° C | 71% | 1019.7 hPa | 0 mm | - | 0 W/m² | - |
| 1787912415 | 7.22° C | 73% | 1019.6 hPa | 0 mm | - | 0 W/m² | - |
| 1787911815 | 6.67° C | 72% | 1019.7 hPa | 0 mm | - | 0 W/m² | - |
| 1787911217 | 7.22° C | 67% | 1019.7 hPa | 0 mm | - | 0 W/m² | - |
| 1787910617 | 7.78° C | 66% | 1019.8 hPa | 0 mm | - | 0 W/m² | - |
* Rain latest hour (hover to see other rain measurements)
** Current wind speed in m/s (hover to see current wind gust speed)